Regional Weather Roundup
Issued by NWS

Home | Current Version | Previous Version | Text Only | Print | Product List | Glossary On
Versions: 1 2 3 4 5 6 7 8 9 10 11 12 13 14 15 16 17 18 19 20 21 22 23 24 25 26 27 28 29 30 31 32 33 34 35 36 37 38 39 40 41 42 43 44 45 46 47 48 49 50
000
ASHW40 PHFO 281843
RWRHI

WEATHER ROUNDUP FOR HAWAII
NATIONAL WEATHER SERVICE HONOLULU HI
800 AM HST SAT MAY 28 2016

THIS IS AN AUTOMATED REPORT THAT HAS NOT BEEN QUALITY CONTROLLED.

NOTE..."FAIR" INDICATES FEW OR NO CLOUDS BELOW 12,000 FEET WITH NO
SIGNIFICANT WEATHER AND/OR OBSTRUCTIONS TO VISIBILITY.

* - THESE SITES REPORT LIMITED FIELDS

HIZ001>004-281900-
KAUAI-NIIHAU-

CITY           SKY/WX    TMP DP  RH WIND       PRES   REMARKS
LIHUE APT      MOSUNNY   77  69  76 E7        30.05R
PORT ALLEN*      N/A     77 N/A N/A E5          N/A
POIPU*           N/A     79 N/A N/A NE3G10      N/A
PRINCEVILLE*     N/A     75 N/A N/A SE3         N/A
KOKOLE POINT*  NOT AVBL
MOLOAA DAIRY*    N/A     77  70  78 E8          N/A
WAIMEA HTS*      N/A     81  68  65 S3          N/A
PUU OPAE*      NOT AVBL
PUU LUA*       NOT AVBL
MAKAHA RIDGE*    N/A     72  68  88 CALM        N/A
$$

HIZ005>011-281900-
OAHU-

CITY           SKY/WX    TMP DP  RH WIND       PRES   REMARKS
HONOLULU       MOSUNNY   79  67  66 CALM      30.04R
KALAELOA       SUNNY     79  69  71 VRB3      30.06R
KANEOHE MCB    CLOUDY    79  69  71 E7        30.02R
WHEELER FIELD  FAIR      75  67  76 VRB2      30.05R
BELLOWS*         N/A    N/A N/A N/A E13         N/A
KAHUKU*          N/A    N/A N/A N/A VRB7G14     N/A
WHEELER*         N/A    N/A N/A N/A S3          N/A
WAIANAE HARBOR   N/A    N/A N/A N/A SW2         N/A
DILLINGHAM*      N/A     77  72  83 MISG        N/A
KAHUKU TRN*      N/A     72  64  78 CALM        N/A
KAWAILOA*        N/A     73  64  73 SE1         N/A
KII*             N/A     79  70  73 E12G17      N/A
MAKUA RANGE*     N/A     79  66  65 E3          N/A
OAHU FOREST NW   N/A     72  64  78 S15G21      N/A
SCHOFIELD BRK*   N/A     81  72  74 MISG        N/A
SCHOFIELD S*   NOT AVBL
WAIANAE VLY*     N/A     79 N/A N/A SW1         N/A
KUAOKALA*        N/A     77  66  69 S5          N/A
HONOULIUULI*   NOT AVBL
MOKUOLOE IS*   NOT AVBL
PALEHUA*         N/A     73  66  78 NE5G12      N/A
WAIAWA PHB*    NOT AVBL
$$

HIZ012>013-281900-
MOLOKAI-

CITY           SKY/WX    TMP DP  RH WIND       PRES   REMARKS
MOLOKAI AIRPT  SUNNY     79  66  64 NW6       30.05R
KALAUPAPA      NOT AVBL
MAKAPULAPAI*     N/A     81  68  65 E9G16       N/A
MOLOKAI 1*     NOT AVBL
PUU ALII*        N/A     59  59 100 NE2G8       N/A
$$

HIZ016-281900-
KAHOOLAWE-

CITY           SKY/WX    TMP DP  RH WIND       PRES   REMARKS
KAHOOLAWE*       N/A     70 N/A N/A E1          N/A
HAKIOAWA*        N/A     91  82  75 MISG      30.47R HX 113
HONOKANAIA*      N/A     79  68  69 NE14G22   29.96R
KANELOA*         N/A     72  66  83 NE12G22     N/A
KEALIALALO*    NOT AVBL
LUA MAKIKA*    NOT AVBL
$$

HIZ014>015-281900-
LANAI-

CITY           SKY/WX    TMP DP  RH WIND       PRES   REMARKS
LANAI CITY     PTSUNNY   73  66  78 S6        30.10R
LANAI 1*       NOT AVBL
$$

HIZ017>028-281900-
MAUI-

CITY           SKY/WX    TMP DP  RH WIND       PRES   REMARKS
KAHULUI        MOSUNNY   78  66  66 CALM      30.04R
KAPALUA-W MAUI MOSUNNY   77  66  69 CALM      30.05
HANA AIRPORT   NOT AVBL
HANA*            N/A     77 N/A N/A E5G10       N/A
HALEAKALA SUMM   N/A     52  41  66 N2G17       N/A
MAALAEA BAY*     N/A     82 N/A N/A S1          N/A
HALEAKALA*     NOT AVBL
KAUPO GAP*     NOT AVBL
KULA 1*          N/A     55  51  86 CALM        N/A
$$

HIZ023>026-281900-
BIG ISLAND OF HAWAII COAST AND LOWER SLOPES-

CITY           SKY/WX    TMP DP  RH WIND       PRES   REMARKS
KAILUA KONA    CLOUDY    81  64  56 VRB3      30.01S
HILO           CLOUDY    71  68  90 SW9       30.07F FOG
HONOKAA*         N/A     70 N/A N/A VRB1        N/A
KAWAIHAE MWT*    N/A     79 N/A N/A N5          N/A
KAWAIHAE*        N/A     79 N/A N/A NW6       30.02S
SOUTH POINT*     N/A     72 N/A N/A NW13G20     N/A
UPOLU AIRPORT*   N/A    N/A N/A N/A NE13G20     N/A
KAMUELA*       MOCLDY    73  59  60 NE8       30.14S
HAKALAU*         N/A     56  54  93 E3          N/A
KALOKO-HONOKO*   N/A     81  64  57 CALM      30.01S
PALI 2*          N/A     66  59  77 SW10G16     N/A
KEALAKOMO*       N/A     77  63  61 NE10        N/A
KAUPULEHU*       N/A     75  63  64 NW3         N/A
KAPAPALA*        N/A     70  64  81 N3          N/A
LOWER KAHUKU*    N/A     63 -38   1 NE2         N/A
PUHE CS*         N/A     77  68  73 N1          N/A
PUHO CS*         N/A     78  66  66 SE2         N/A
PTA KEAMUKU*     N/A     64  59  82 CALM        N/A
WAIKOLOA*        N/A     79  61  53 NE3G9       N/A
$$

HIZ027>028-281900-
BIG ISLAND OF HAWAII INTERIOR AND SUMMMITS-

CITY           SKY/WX    TMP DP  RH WIND       PRES   REMARKS
BRADSHAW FIELD CLOUDY    57  51  81 SW2       30.34S
MK VISITOR CEN   N/A     50  43  76 S3          N/A
MAUNA KEA*       N/A     39   1  20 N38         N/A  WCI  26
MAUNA LOA*       N/A    N/A N/A N/A MISG        N/A
MAUNA LOA 1*   NOT AVBL
PTA KIPUKA*      N/A     54  52  94 SE2G8       N/A
PTA RANGE 17*    N/A     55  48  76 S5          N/A
PTA WEST*        N/A     57  52  82 NE1         N/A
NENE CABIN*      N/A     54  52  94 E2          N/A
AHUMOA*          N/A     56  56 100 W3          N/A
PTA PORTABLE*  NOT AVBL
PUU MALI*        N/A     54  54 100 NW5         N/A
$$

HIC003-281900-
NORTHWEST ISLANDS-

CITY           SKY/WX    TMP DP  RH WIND       PRES   REMARKS
MIDWAY ISLAND  PTSUNNY   72  64  78 E14       30.17R
MIDWAY NOS*      N/A     72 N/A N/A MISG      30.15R
FRENCH FRIGATE NOT AVBL
$$

PHZ110>124-180-281900-
BUOY REPORTS

STATION/POSITION TIME  TEMP    WIND        PRES    WAVE   SWELL
                       AIR SEA DIR/SP/G            HT/PER HT/DIR
                 (UTC) (F)     (DEG/KT/KT) (MB)    (FT/S) (FT/D)
BUOY 51001       1800   78 80   50/ 10/ 14 1018.0R
BUOY 51101       1750   78 79   10/  2/  4 1017.3R   4/ 9   3/ 10
BUOY 51100       NOT AVBL
BUOY 51002       1750   78 79   80/ 14/ 16 1015.9R   5/ 8   3/ 90
BUOY 51003       1750   78 80   70/  4/  6 1017.0R   4/14   3/190
BUOY 51004       1750   78 79   70/ 14/ 16 1016.4R   6/ 8   5/ 90
BARBERS PT BUOY  NOT AVBL
WAIMEA BAY BUOY  1804      78                N/A     3/15   2/250
KAILUA BAY BUOY  1811      78                N/A     4/ 9   2/ 20
LANAI BUOY       1815      79                N/A     3/14   2/220
BARBERS PT 2     1803      80                N/A     3/15   2/190
PAUWELA MAUI     1809      78                N/A     5/10   2/350
HILO             1812      78                N/A     5/ 8   2/130
KANEOHE BAY BUOY 1806      77                N/A     4/ 9
HANALEI KAUAI    NOT AVBL
KAHULUI HARBOR   1800   76 80   10/  5/  6 1017.0R
HONOLULU HARBOR  1800   76 79  330/  4/  4 1017.9R
KILO NALU        NOT AVBL
HILO HARBOR      1800   69 78  220/  7/  9 1018.0R
MOKUOLOE         1700   81 80   90/  6/  9 1016.9R
NAWILIWILI       1800   77 81   80/  7/  8 1017.2R
WHOTS BUOY       NOT AVBL
BUOY 51028       NOT AVBL
$$

......................KEY........................................
  SKY/WX - SKY CONDITIONS/PRESENT WEATHER
  TMP    - TEMPERATURE IN FAHRENHEIT
  DWPT   - DEWPOINT IN FAHRENHEIT
  RH     - RELATIVE HUMIDITY IN PERCENT
  WIND   - DIRECTION AND SPEED /MPH FOR ISLANDS...KTS FOR BUOYS/
  PRES   - MEAN SEA LEVEL PRESSURE IN INCHES OF HG
  VSB    - VISIBILITY IN MILES
  HX     - HEAT INDEX
  WCI    - WIND CHILL INDEX
  VRB    - VARIABLE WIND DIRECTION
  N/A    - NOT AVAILABLE




USA.gov is the U.S. government's official web portal to all federal, state and local government web resources and services.